Regional Weather Roundup
Issued by NWS Jackson, KY

Home | Current Version | Previous Version | Graphics & Text | Print | Product List | Glossary On
Versions: 1 2 3 4 5 6 7 8 9 10 11 12 13 14 15 16 17 18 19 20 21 22 23 24 25 26 27 28 29 30 31 32 33 34 35 36 37 38 39 40 41 42 43 44 45 46 47 48 49 50
700
ASUS43 KJKL 270710
RWRJKL

EAST KENTUCKY HOURLY WEATHER ROUNDUP
NATIONAL WEATHER SERVICE JACKSON KY
200 AM EST MON FEB 27 2017

NOTE: "FAIR" INDICATES FEW OR NO CLOUDS BELOW 12,000 FEET WITH
NO SIGNIFICANT WEATHER AND/OR OBSTRUCTIONS TO VISIBILITY.

* THESE REPORTS ARE NOT UNDER NWS QUALITY CONTROL AND MAY NOT
  REPORT WEATHER SUCH AS PRECIPITATION AND FOG.

KYZ079-080-083-085-087-088-110-112-115-119-120-270800
...EASTERN KENTUCKY...

CITY           SKY/WX    TMP DP  RH WIND       PRES   REMARKS
JACKSON        CLOUDY    42  20  41 SW3       30.21R
LONDON         CLOUDY    40  26  57 S5        30.21R
SOMERSET*      CLOUDY    39  28  65 CALM      30.24R
MONTICELLO*    CLOUDY    42  30  62 VRB6      30.23R
WILLIAMSBURG*  CLOUDY    43  18  36 E3        30.21R
MIDDLESBORO*   CLOUDY    34  28  79 CALM      30.24S
HARLAN APT*    CLOUDY    34  25  69 CALM      30.23R
PIKE CO APT*   CLOUDY    42  18  38 S6        30.21R
BIG SANDY APT* CLOUDY    42  21  42 S3        30.22R
MOREHEAD APT*  CLOUDY    41  18  38 S5        30.22S
ASHLAND*       CLOUDY    37  28  70 CALM      30.22R
$$

KYZ035-036-041-042-044-050-067-078-099-270800
...CENTRAL KENTUCKY...

CITY           SKY/WX    TMP DP  RH WIND       PRES   REMARKS
FLEMING/MASON* CLOUDY    40  22  48 S7        30.20F
DANVILLE*      CLOUDY    43  23  45 SW3       30.23R
LEXINGTON      CLOUDY    48  25  40 SW13G22   30.20R
FRANKFORT      CLOUDY    46  21  37 S10       30.19R
LOUISVILLE     LGT RAIN  47  23  38 SW10      30.20R
LEBANON*         N/A     48  25  40 SW7       30.21R
GLASGOW*       CLOUDY    44  31  59 S3        30.20F
BOWLING GREEN  CLOUDY    47  26  44 CALM      30.21S
$$

KYZ091>093-OHZ055-061-077-WVZ005-015-034-035-042-270800
...SOUTHERN OHIO/WEST VIRGINIA...

CITY           SKY/WX    TMP DP  RH WIND       PRES   REMARKS
COVINGTON      CLOUDY    40  22  48 SE3       30.18R
COLUMBUS       CLOUDY    41  21  44 S6        30.20R
DAYTON         CLOUDY    40  19  43 S9        30.18R WCI  34
WILMINGTON     CLOUDY    37  24  59 S6        30.18S WCI  32
HUNTINGTON     CLOUDY    37  22  54 CALM      30.22R
CHARLESTON     CLOUDY    32  24  72 CALM      30.23S
PINEVILLE*     CLOUDY    34  22  61 MISG      30.29S
BECKLEY        CLOUDY    38  14  37 CALM      30.23R
BLUEFIELD      CLOUDY    37   8  30 CALM      30.23R
LOGAN CO APT*  CLOUDY    41  16  36 CALM      30.21S
$$

VAZ002-007-008-TNZ017-027-036-066-071-270800
...SOUTHWEST VIRGINIA/EAST TENNESSEE...

CITY           SKY/WX    TMP DP  RH WIND       PRES   REMARKS
WISE*          CLOUDY    37  18  44 CALM      30.22R
JONESVILLE*    CLOUDY    32  27  80 CALM      30.26R
ABINGDON*      PTCLDY    32  23  69 E6        30.24R WCI  26
BRISTOL        CLOUDY    29  23  78 CALM      30.25R
MORRISTOWN*    CLOUDY    39  23  52 E3        30.21F
SEVIERVILLE*   MOSUNNY   30  25  80 CALM      30.23R
KNOXVILLE      CLOUDY    37  27  67 NE5       30.20F WCI  33
LAFOLLETTE*    CLOUDY    34  28  80 CALM      30.25S
OAK RIDGE      CLOUDY    38  27  64 E3        30.23S
CROSSVILLE     MOCLDY    42  22  44 NW5       30.19R
NASHVILLE      CLOUDY    48  26  42 N7        30.19R
$$

...KEY TO REMARKS...
VSB - VISIBILITY IN MILES
WCI - WIND CHILL INDEX
HX  - HEAT INDEX

$$




USA.gov is the U.S. government's official web portal to all federal, state and local government web resources and services.